User: anonymous   Login
Location: New Town
(33.2710°N, 90.7534°W)
Time: 19:16:04
(UTC+00:00)
Language:

Explorer 11/Cluster Stage 4 - Orbit

View from above orbital plane
View from above orbital plane
View from above satellite
View from above satellite

Ground track
Ground track

The orbit data is extracted from the following two-line orbital elements,

1 00107U 61013A   21216.51544899  .00000377  00000-0  28208-4 0  9997
2 00107  28.7928   8.1050 0545550 278.1417  75.7647 14.09273153 24540
Epoch (UTC): 04 August 2021 12:22:14
Eccentricity: 0.0545550
inclination: 28.7928°
perigee height: 467 km
apogee height: 1257 km
right ascension of ascending node: 8.1050°
argument of perigee: 278.1417°
revolutions per day: 14.09273153
mean anomaly at epoch: 75.7647°
orbit number at epoch: 2454

The dashed part of the orbit path shows where the satellite is in the earth's shadow,  

DLR